DW5210 Weather Reports


time (UTC)temp
C
wind
direction
speed
KPH
gust
KPH
rain 1hr
cm
rain 24hr
cm
rain mn
cm
humidity
%
barometer
mb
20260502123505 21 207 6.4 14.5 0.00 0.00 0.00 54 1013.6
20260502100505 16 230 3.2 14.5 0.00 0.00 0.00 75 1015.8
20260502090504 12 233 3.2 4.8 0.00 0.00 0.00 86 1016.4
20260502070505 10 234 0.0 4.8 0.00 0.00 0.00 94 1016.9
20260502063505 9 234 3.2 8.0 0.00 0.00 0.00 94 1016.9
20260502063005 9 234 0.0 4.8 0.00 0.00 0.00 95 1016.8
20260502060005 9 234 0.0 3.2 0.00 0.00 0.00 94 1016.8
20260502050505 9 234 0.0 3.2 0.00 0.00 0.00 94 1016.8
20260502043504 9 234 0.0 3.2 0.00 0.00 0.00 94 1016.7
20260502043005 9 234 0.0 3.2 0.00 0.00 0.00 94 1016.6
20260502040005 9 234 0.0 0.0 0.00 0.00 0.00 94 1016.8
20260502023504 10 234 0.0 3.2 0.00 0.00 0.00 95 1017.2
20260502020005 9 234 0.0 4.8 0.00 0.00 0.00 94 1017.2
20260502010505 8 234 0.0 4.8 0.00 0.00 0.00 94 1017.4
20260502003505 7 234 0.0 3.2 0.00 0.00 0.00 90 1017.7
20260502000005 8 234 0.0 0.0 0.00 0.00 0.00 91 1018.1
20260501233004 8 234 0.0 0.0 0.00 0.00 0.00 89 1018.2
20260501230504 9 234 0.0 4.8 0.00 0.00 0.00 88 1018.2
20260501223504 9 234 0.0 8.0 0.00 0.00 0.00 88 1018.4
20260501220504 10 234 0.0 4.8 0.00 0.00 0.00 85 1018.2
20260501210504 12 234 0.0 11.3 0.00 0.00 0.00 80 1018.1
20260501210004 12 234 1.6 11.3 0.00 0.00 0.00 80 1018.0
20260501203005 12 234 0.0 4.8 0.00 0.00 0.00 78 1017.9
20260501200004 13 235 3.2 9.7 0.00 0.00 0.00 79 1017.9
20260501193504 15 235 0.0 4.8 0.00 0.00 0.00 77 1017.6
20260501190004 16 235 0.0 4.8 0.00 0.00 0.00 74 1017.4
20260501183504 17 237 1.6 9.7 0.00 0.00 0.00 73 1017.4
20260501183004 17 237 3.2 11.3 0.00 0.00 0.00 72 1017.4
20260501180504 17 240 3.2 11.3 0.00 0.00 0.00 70 1017.1
20260501173503 18 221 3.2 20.9 0.00 0.00 0.00 70 1017.2
20260501170004 18 248 4.8 19.3 0.00 0.00 0.00 70 1017.3
20260501163503 18 229 4.8 20.9 0.00 0.00 0.00 70 1017.5
20260501163004 19 207 8.0 19.3 0.00 0.00 0.00 70 1017.5
20260501160504 20 178 9.7 25.7 0.00 0.00 0.00 70 1017.7
20260501160004 20 232 8.0 25.7 0.00 0.00 0.00 70 1017.8
20260501153005 20 207 4.8 24.1 0.00 0.00 0.00 69 1017.7